Location: Seattle
(47.6064°N, 122.3308°W)
Time: 01:39:05
(UTC-08:00)

Envisat - Pass Details

Date: 30 October 2020
Orbit: 764 x 766 km, 98.1° (Epoch: 03 December)

Event Time Altitude Azimuth Distance (km) Brightness Sun altitude
Rises 19:25:54 0° 206° (SSW) 3,221 6.7 -16.0°
Reaches altitude 10° 19:28:48 10° 223° (SW) 2,301 6.1 -16.5°
Maximum altitude 19:32:28 20° 270° (W) 1,729 5.9 -17.1°
Drops below altitude 10° 19:36:08 10° 316° (NW) 2,313 6.1 -17.7°
Sets 19:39:05 0° 334° (NNW) 3,245 6.6 -18.2°
